Simultaneous Nadir Overpasses (SNOs) Predictions

Prediction of SNOs between GOES-17 and NOAA-20 Satellite Orbit:

Table of predicted SNOs for the next 14.0 days since TLE Epoch: 1/10/2025
Index Date Time (GOES-17) GOES-17 Lat,Lon NOAA-20 Lat,Lon Distance(km) Time Diff (sec)
1 01/10/2025 20:22:05 -0.02,-104.65 0.06,-104.34 35.26 80
2 01/13/2025 08:25:10 0.02,-104.71 0.12,-105.08 43.10 80
3 01/14/2025 08:03:47 0.02,-104.71 -0.92,-100.56 473.12 80
4 01/15/2025 20:25:43 -0.02,-104.66 -0.32,-105.86 136.88 80
5 01/16/2025 20:09:40 -0.02,-104.67 0.73,-101.34 380.12 80
6 01/18/2025 08:31:29 0.02,-104.74 0.43,-106.62 213.13 80
7 01/19/2025 08:10:04 0.01,-104.75 -0.56,-102.08 303.61 80
8 01/20/2025 20:32:02 -0.02,-104.70 -0.60,-107.39 306.33 80
9 01/21/2025 20:15:57 -0.02,-104.71 0.40,-102.86 210.84 80
10 01/23/2025 08:37:47 0.02,-104.79 0.75,-108.14 381.74 80
11 01/24/2025 08:16:22 0.02,-104.79 -0.24,-103.61 134.88 80
